User: anonymous   Login
Location: Unspecified
(0.0000°N, 0.0000°E)
Time: 07:21:29
(UTC+00:00)
Language:

S-56A Canister/Altair - Orbit

View from above orbital plane
View from above orbital plane
View from above satellite
View from above satellite

Ground track
Ground track

The orbit data is extracted from the following two-line orbital elements,

1    82U 61004B   20147.73047916 -.00000024 +00000-0 +19831-4 0  9995
2    82 038.8593 278.8267 1174293 338.7131 016.8332 12.26063553805145
Epoch (UTC): 26 May 2020 17:31:53
Eccentricity: 0.1174293
inclination: 38.8593°
perigee height: 633 km
apogee height: 2499 km
right ascension of ascending node: 278.8267°
argument of perigee: 338.7131°
revolutions per day: 12.26063553
mean anomaly at epoch: 16.8332°
orbit number at epoch: 80514

The dashed part of the orbit path shows where the satellite is in the earth's shadow,  

DLR